[[{"header":{"parameterUnit":"m.s-1","parameterCategory":1,"la1":30.2991,"la2":30.254,"lo1":-89.0895,"lo2":-89.0444,"dy":0.0017,"dx":0.0017,"nx":28,"ny":28,"refTime":"2023-03-21T21:00:00:Z","depth":0,"parameterNumber":2,"parameterNumberName":"U-component_of_WINDS"},"data":[0,0,0,0,0,0,0,0,0,0,0,0,0,0,0,0,0,0,0,0,0,0,0,0,0,0,0,0,0,0,0,0,0,0,0,0,0,0,0,0,0,0,0,0,0,0,0,0,0,0,0,0,0,0,0,0,0,0,-2.0506,-2.0507,0,-2.0566,-2.0566,-2.0567,-2.0526,-2.0524,-2.0523,-2.0521,-2.0584,-2.0587,-2.059,0,0,0,0,0,0,0,0,0,0,0,0,0,-2.0359,-2.0362,-2.0506,-2.0507,-2.0508,-2.0566,-2.0566,-2.0567,-2.0527,-2.0524,-2.0522,-2.052,-2.0583,-2.0587,-2.0591,0,0,0,0,0,0,0,0,0,0,0,0,0,-2.0421,-2.0363,-2.0506,-2.0494,-2.0494,-2.0565,-2.0566,-2.0567,-2.0527,-2.0524,-2.0521,-2.0519,-2.0581,-2.0586,-2.0591,-2.0678,0,0,-2.0607,-2.0609,0,0,0,0,0,0,0,0,-2.0418,-2.0427,-2.0495,-2.0495,-2.0495,-2.0536,-2.0537,-2.0605,-2.0528,-2.0514,-2.0521,-2.0518,-2.057,-2.0576,-2.0593,-2.0681,-2.0684,-2.0607,-2.061,-2.0612,-2.0614,0,0,0,0,0,0,0,-2.0413,-2.0424,-2.053,-2.0496,-2.0496,-2.0487,-2.0492,-2.055,-2.0557,-2.0515,-2.0513,-2.052,-2.0569,-2.0588,-2.0594,-2.0685,-2.0607,-2.0612,-2.0615,-2.0617,-2.0848,-2.0851,0,0,0,0,0,0,-2.041,-2.042,-2.0528,-2.0531,-2.0449,-2.0492,-2.0498,-2.0525,-2.0556,-2.0558,-2.0522,-2.0518,-2.0581,-2.0588,-2.0596,-2.0701,-2.0612,-2.0617,-2.062,-2.0845,-2.0848,-2.0852,0,0,0,0,0,0,-2.0407,-2.042,-2.0525,-2.0475,-2.0488,-2.0497,-2.0528,-2.0528,-2.0547,-2.0562,-2.0563,-2.054,-2.0579,-2.0589,-2.0658,-2.0702,-2.0619,-2.0624,-2.0841,-2.0846,-2.085,-2.0909,0,0,0,0,0,0,-2.0403,-2.0419,-2.0452,-2.0476,-2.0491,-2.0586,-2.0531,-2.0531,-2.0556,-2.055,-2.0579,-2.0581,-2.0578,-2.0651,-2.0663,-2.0708,-2.0628,-2.0837,-2.0843,-2.0848,-2.0904,-2.0915,-2.0926,0,0,0,0,0,-2.0398,-2.0466,-2.0453,-2.0467,-2.0532,-2.0588,-2.0597,-2.0591,-2.0559,-2.0593,-2.0602,-2.058,-2.0695,-2.0658,-2.0672,-2.0718,-2.0834,-2.0841,-2.0848,-2.0899,-2.0913,-2.0925,0,0,0,0,0,0,-2.0447,-2.0469,-2.0455,-2.0534,-2.0559,-2.0581,-2.0623,-2.0607,-2.0642,-2.0636,-2.0628,-2.0635,-2.0707,-2.072,-2.0678,-2.0805,-2.076,-2.077,-2.0794,-2.0808,-2.0818,-2.0814,-2.0632,0,0,0,0,0,-2.0467,-2.051,-2.0528,-2.0595,-2.0609,-2.0614,-2.0638,-2.0632,-2.0658,-2.0669,-2.0684,-2.0711,-2.0753,-2.0781,-2.0821,-2.0905,-2.0911,-2.0944,-2.0955,-2.0964,-2.0973,-2.1019,-2.1034,-2.0874,-2.0874,-2.0874,0,0,-2.0509,-2.0526,-2.0554,-2.0606,-2.0625,-2.0671,-2.0623,-2.0674,-2.0708,-2.0677,-2.0742,-2.0754,-2.0784,-2.0861,-2.0896,-2.0874,-2.1018,-2.0973,-2.098,-2.0984,-2.1028,-2.1043,-2.1056,-2.0879,-2.0878,-2.0877,0,0,-2.0608,-2.0626,-2.0684,-2.0704,-2.0733,-2.0736,-2.0751,-2.0775,-2.0782,-2.0847,-2.0825,-2.0866,-2.0939,-2.0961,-2.0982,-2.1091,-2.1072,-2.1104,-2.1162,-2.1207,-2.1219,-2.123,-2.1269,-2.1283,-2.1113,-2.1113,-2.1113,0,-2.0657,-2.0724,-2.0716,-2.0768,-2.0792,-2.0766,-2.0825,-2.0845,-2.0887,-2.0904,-2.0878,-2.097,-2.0988,-2.107,-2.1096,-2.1114,-2.113,-2.11,-2.1218,-2.1229,-2.1239,-2.1276,-2.1291,-2.1116,-2.1116,-2.1116,-2.1115,0,-2.0782,-2.083,-2.0873,-2.0913,-2.0942,-2.0997,-2.0999,-2.1029,-2.102,-2.1026,-2.1094,-2.1114,-2.1158,-2.1177,-2.1169,-2.1259,-2.1244,-2.1219,-2.1174,-2.1258,-2.1293,-2.1307,-2.1122,-2.112,-2.1119,-2.1118,0,0,-2.0914,-2.0949,-2.0965,-2.0983,-2.1014,-2.1051,-2.1106,-2.1148,-2.1174,-2.1203,-2.1249,-2.1312,-2.1289,-2.1312,-2.1307,-2.1347,-2.1432,-2.1316,-2.1317,-2.1337,-2.1532,-2.1551,-2.1567,-2.1419,-2.1422,-2.1424,-2.1529,0,-2.1015,-2.111,-2.1105,-2.1194,-2.1238,-2.1214,-2.1262,-2.1286,-2.1293,-2.1332,-2.134,-2.1385,-2.1351,-2.1365,-2.1403,-2.1413,-2.1471,-2.1406,-2.1463,-2.1465,-2.1456,-2.1585,-2.1605,-2.1703,-2.1543,-2.1545,-2.1547,0,-2.1146,-2.1179,-2.1273,-2.1297,-2.1316,-2.1359,-2.1397,-2.1434,-2.1462,-2.1464,-2.1491,-2.1479,-2.1535,-2.1489,-2.1566,-2.1522,-2.1546,-2.1554,-2.1558,-2.1563,-2.1511,-2.1594,-2.1735,-2.1749,-2.1568,-2.1566,-2.1565,0,-2.1233,-2.1302,-2.1366,-2.1382,-2.1413,-2.1444,-2.1458,-2.1482,-2.1508,-2.1542,-2.1559,-2.1599,-2.1622,-2.1653,-2.1653,-2.1619,-2.1732,-2.1685,-2.1736,-2.1736,-2.176,-2.1759,-2.1907,-2.1776,-2.1775,-2.1775,-2.1775,0,-2.1346,-2.1405,-2.1406,-2.1446,-2.1511,-2.1504,-2.1569,-2.158,-2.1602,-2.1644,-2.1626,-2.1666,-2.1663,-2.1704,-2.1704,-2.1769,-2.1779,-2.1783,-2.1782,-2.1785,-2.1784,-2.18,-2.1793,-2.1779,-2.1778,-2.1777,-2.1777,0,-2.1455,-2.1458,-2.1527,-2.155,-2.1557,-2.1604,-2.1623,-2.1662,-2.1667,-2.1721,-2.1733,-2.1742,-2.1789,-2.1792,-2.1847,-2.1847,-2.1925,-2.1917,-2.1916,-2.1914,-2.1965,-2.196,-2.2128,-2.215,-2.2004,-2.2005,-2.2007,0,-2.1527,-2.1571,-2.1599,-2.1625,-2.1641,-2.1684,-2.1711,-2.1707,-2.1735,-2.177,-2.1804,-2.1849,-2.1885,-2.1962,-2.1974,-2.2015,-2.2008,-2.2064,-2.2014,-2.2015,-2.2009,-2.2006,-2.2011,-2.2074,-2.2075,-2.2077,-2.2078,0,-2.1655,-2.1654,-2.1692,-2.1732,-2.1763,-2.1794,-2.1823,-2.1846,-2.1845,-2.1878,-2.1926,-2.1953,-2.2009,-2.2054,-2.2095,-2.211,-2.2095,-2.2093,-2.2107,-2.211,-2.2107,-2.211,-2.1942,-2.2089,-2.2088,-2.2087,-2.2087,-2.2086,-2.1747,-2.1786,-2.1811,-2.1854,-2.1875,-2.1903,-2.194,-2.195,-2.1989,-2.2034,-2.2029,-2.2082,-2.2109,-2.2162,-2.2181,-2.2223,-2.2204,-2.2224,-2.2229,-2.2234,-2.2239,-2.2101,-2.223,-2.223,-2.2229,-2.2229,-2.2229,0,-2.1874,-2.189,-2.193,-2.197,-2.2004,-2.1986,-2.2017,-2.2047,-2.2093,-2.212,-2.2155,-2.221,-2.2254,-2.227,-2.2313,-2.2343,-2.2337,-2.2355,-2.2353,-2.2356,-2.2254,-2.2237,-2.2359,-2.2359,-2.2359,-2.2359,-2.2359,-2.2359,-2.1945,-2.2008,-2.2011,-2.2085,-2.21,-2.2152,-2.2171,-2.2196,-2.2217,-2.2279,-2.2315,-2.2325,-2.2347,-2.2392,-2.2431,-2.2435,-2.2452,-2.2472,-2.2473,-2.2377,-2.2364,-2.2351,-2.2336,-2.2476,-2.2476,-2.2572,-2.2573,-2.2574]},{"header":{"parameterUnit":"m.s-1","parameterCategory":1,"la1":30.2991,"la2":30.254,"lo1":-89.0895,"lo2":-89.0444,"dy":0.0017,"dx":0.0017,"nx":28,"ny":28,"refTime":"2023-03-21T21:00:00:Z","depth":0,"parameterNumber":3,"parameterNumberName":"V-component_of_WINDS"},"data":[0,0,0,0,0,0,0,0,0,0,0,0,0,0,0,0,0,0,0,0,0,0,0,0,0,0,0,0,0,0,0,0,0,0,0,0,0,0,0,0,0,0,0,0,0,0,0,0,0,0,0,0,0,0,0,0,0,0,1.2116,1.2116,0,1.2076,1.2075,1.2075,1.2094,1.2095,1.2096,1.2097,1.2055,1.2053,1.2051,0,0,0,0,0,0,0,0,0,0,0,0,0,1.2214,1.2212,1.2116,1.2116,1.2115,1.2076,1.2075,1.2075,1.2094,1.2095,1.2097,1.2098,1.2056,1.2053,1.2051,0,0,0,0,0,0,0,0,0,0,0,0,0,1.2172,1.2211,1.2117,1.212,1.212,1.2076,1.2075,1.2074,1.2094,1.2095,1.2097,1.2098,1.2057,1.2054,1.2051,1.2,0,0,1.2041,1.204,0,0,0,0,0,0,0,0,1.2174,1.2168,1.212,1.212,1.212,1.2092,1.2094,1.2049,1.2093,1.2104,1.2097,1.2099,1.2066,1.2062,1.2051,1.1998,1.1996,1.2041,1.2039,1.2037,1.2036,0,0,0,0,0,0,0,1.2177,1.217,1.21,1.212,1.2119,1.2125,1.2121,1.2086,1.2077,1.2103,1.2104,1.2099,1.2066,1.2054,1.205,1.1995,1.2041,1.2038,1.2036,1.2035,1.1902,1.19,0,0,0,0,0,0,1.218,1.2173,1.2102,1.2099,1.2152,1.2122,1.2117,1.2099,1.2077,1.2075,1.2098,1.21,1.2059,1.2054,1.2049,1.199,1.2037,1.2034,1.2033,1.1903,1.1901,1.19,0,0,0,0,0,0,1.2182,1.2173,1.2103,1.2136,1.2128,1.2119,1.2098,1.2098,1.2085,1.2073,1.2072,1.2087,1.206,1.2053,1.2013,1.1989,1.2033,1.203,1.1905,1.1903,1.19,1.1871,0,0,0,0,0,0,1.2185,1.2174,1.2154,1.2136,1.2126,1.2067,1.2097,1.2096,1.208,1.2083,1.2063,1.2061,1.206,1.2017,1.2009,1.1985,1.2028,1.1907,1.1904,1.1901,1.1874,1.1867,1.1862,0,0,0,0,0,1.2188,1.2146,1.2152,1.2144,1.21,1.2065,1.206,1.206,1.2078,1.2058,1.2051,1.2061,1.1993,1.2013,1.2004,1.1979,1.1909,1.1905,1.1901,1.1876,1.1869,1.1862,0,0,0,0,0,0,1.216,1.2143,1.215,1.2101,1.2085,1.2069,1.2043,1.2052,1.2029,1.2033,1.2035,1.203,1.1988,1.1979,1.2002,1.193,1.1954,1.1948,1.1937,1.193,1.1924,1.1927,1.2025,0,0,0,0,0,1.2148,1.2121,1.2108,1.2066,1.2057,1.2052,1.2037,1.2039,1.2022,1.2015,1.2004,1.1987,1.1963,1.1946,1.1922,1.1873,1.187,1.1851,1.1845,1.1841,1.1836,1.1812,1.1805,1.1887,1.1887,1.1888,0,0,1.2123,1.2111,1.2093,1.206,1.2047,1.202,1.2046,1.2015,1.1995,1.201,1.1971,1.1964,1.1945,1.1901,1.1881,1.1892,1.1813,1.1836,1.1832,1.183,1.1808,1.18,1.1793,1.1885,1.1885,1.1886,0,0,1.2064,1.2051,1.2016,1.2004,1.1986,1.1983,1.1975,1.1958,1.1954,1.1915,1.1927,1.1904,1.186,1.1847,1.1835,1.1775,1.1785,1.1768,1.1737,1.1714,1.1708,1.1702,1.1683,1.1676,1.1763,1.1763,1.1763,0,1.2035,1.1995,1.1997,1.1967,1.1953,1.1967,1.1932,1.192,1.1894,1.1885,1.1898,1.1846,1.1834,1.1788,1.1774,1.1763,1.1755,1.177,1.1708,1.1703,1.1697,1.1679,1.1672,1.1761,1.1761,1.1761,1.1761,0,1.1962,1.1933,1.1907,1.1884,1.1867,1.1835,1.1834,1.1817,1.1821,1.1818,1.178,1.1767,1.1742,1.1732,1.1735,1.1687,1.1695,1.1708,1.1732,1.1688,1.1671,1.1663,1.1758,1.1759,1.1759,1.176,0,0,1.1881,1.1863,1.1853,1.1844,1.1826,1.1805,1.1774,1.1751,1.1738,1.172,1.1696,1.166,1.1673,1.1659,1.1662,1.1641,1.1598,1.1658,1.1657,1.1648,1.1548,1.1539,1.1531,1.1605,1.1604,1.1602,1.155,0,1.1822,1.1769,1.1773,1.1723,1.1699,1.1713,1.1687,1.1674,1.167,1.165,1.1646,1.1622,1.164,1.1632,1.1613,1.1608,1.1578,1.1611,1.1583,1.1582,1.1588,1.1521,1.1511,1.1462,1.1543,1.1542,1.1541,0,1.1746,1.1728,1.1676,1.1666,1.1656,1.1632,1.1613,1.1592,1.1579,1.1578,1.1565,1.1572,1.1542,1.1567,1.1528,1.1551,1.154,1.1536,1.1534,1.1532,1.1559,1.1519,1.1446,1.1439,1.153,1.1531,1.1532,0,1.1695,1.1658,1.1623,1.1615,1.1601,1.1585,1.1578,1.1566,1.1553,1.1536,1.1528,1.1508,1.1497,1.1482,1.1484,1.1501,1.1445,1.1469,1.1445,1.1445,1.1432,1.1433,1.1358,1.1423,1.1423,1.1423,1.1424,0,1.1629,1.1598,1.1601,1.1579,1.1546,1.1551,1.1517,1.1512,1.1502,1.1481,1.1492,1.1472,1.1476,1.1456,1.1457,1.1426,1.1421,1.142,1.1421,1.142,1.142,1.1413,1.1417,1.1422,1.1422,1.1422,1.1423,0,1.1566,1.1567,1.1531,1.1522,1.1519,1.1494,1.1487,1.1468,1.1467,1.144,1.1434,1.1432,1.141,1.1411,1.1385,1.1386,1.1349,1.1353,1.1353,1.1354,1.1331,1.1333,1.1249,1.1239,1.131,1.1309,1.1309,0,1.1525,1.1501,1.1491,1.1478,1.1471,1.145,1.1438,1.1443,1.1429,1.1414,1.1397,1.1377,1.136,1.1325,1.1321,1.1302,1.1307,1.1279,1.1304,1.1305,1.1309,1.1311,1.1309,1.1274,1.1273,1.1273,1.1272,0,1.1452,1.1454,1.1436,1.1419,1.1404,1.1391,1.1378,1.1367,1.1371,1.1356,1.1334,1.1322,1.1298,1.1277,1.126,1.1254,1.1264,1.1264,1.1258,1.1257,1.1259,1.1259,1.1341,1.1266,1.1267,1.1267,1.1267,1.1268,1.1399,1.138,1.1371,1.1351,1.1343,1.1332,1.1315,1.1313,1.1295,1.1276,1.128,1.1256,1.1247,1.1225,1.1218,1.12,1.121,1.12,1.1198,1.1195,1.1194,1.1261,1.1196,1.1197,1.1197,1.1197,1.1197,0,1.1328,1.1324,1.1306,1.129,1.1275,1.1287,1.1275,1.1262,1.1241,1.1231,1.1216,1.1193,1.1174,1.117,1.1153,1.114,1.1144,1.1135,1.1137,1.1136,1.1185,1.1193,1.1132,1.1132,1.1132,1.1132,1.1132,1.1132,1.1289,1.1259,1.1261,1.1228,1.1224,1.1201,1.1194,1.1185,1.1177,1.1151,1.1137,1.1135,1.1128,1.1111,1.1095,1.1095,1.1088,1.1078,1.1079,1.1125,1.1132,1.1138,1.1146,1.1076,1.1076,1.1032,1.1031,1.1031]}]]